EXPRESS AM-3

导读 | 豆包AI

EXPRESS AM-3(快车AM-3)是由独联体(CIS)发射的通信卫星,由俄罗斯列舍特涅夫应用力学科研生产联合体与法国阿尔卡特空间公司合作制造,于2005年6月24日在哈萨克斯坦拜科努尔用质子-K火箭发射。卫星定点于东经140度地球静止轨道,配备16个C波段、12个Ku波段和1个L波段转发器,设计寿命12年,主要为西伯利亚、远东、亚洲及澳大利亚提供高清电视、广播通信服务,L波段资源预留用于政府移动通信,由俄罗斯卫星通信公司运营。

基本信息
目录编号:
28707
目录名称:
EXPRESS AM-3
国际标识:
2005-023A
轨道中心:
EARTH
卫星名称:
EXPRESS AM-3
卫星全名:
--
卫星状态:
在轨 (已飞行7616 天)
发射日期:
2005-06-24 UTC
国别 :
俄罗斯(独联体) (CIS)
星等 :
--
轨道信息
数据来源 国际轨道数据 AOE轨道数据
星历时间 2026-04-30T23:09:23+0800
17小时前
查看轨道信息
2026-05-01T04:00:00+0800
12小时前
查看轨道信息
半长轴 42524.527km 42524.527km
偏心率 0.0004103 0.0004211
轨道倾角 7.194° 7.194°
近地点辐角 248.000° 247.282°
升交点赤经 68.632° 68.631°
平近点角 139.823° 212.473°
近地点 36128.942km 36128.482km
远地点 36163.838km 36164.298km
周期 1454.518分钟 1454.518分钟
每日圈数 0.990019 0.990019
详细信息
使用方式:
暂无
2D轨道图
3D轨道图
轨道高度分析图
轨道倾角分析图
轨道综合分析图
查看轨道综合分析图